Home > Weather > Zürich > Past weeks

Flag for Switzerland Weather for the Past 2 Weeks in Zürich, Zurich, Switzerland

Now
43 °F

Partly cloudy.


Feels Like: 41 °F
Forecast: 34 / 42 °F
Wind: 3 mph from Southeast

Location: Zurich-Kloten

Current Time: Feb 14, 2016 at 5:02:50 AM

Latest Report: Feb 14, 2016 at 4:20 AM


Visibility: N/A

Pressure: 29.21 "Hg

Humidity: 76%

Dew point: 36 °F

Location of ZürichLocation

Historic Weather in Zürich — Graph

°F

Zürich Temperature Yesterday

Maximum temperature yesterday: 46 °F (at 2:50 PM)
Minimum temperature yesterday: 36 °F (at 12:20 AM)
Average temperature yesterday: 42 °F

High & Low Weather Summary for the Past Weeks

 TemperatureHumidityPressure
High55 °F (Feb 1, 11:20 AM)100% (Jan 30, 3:50 AM)30.45 "Hg (Jan 30, 3:50 AM)
Low30 °F (Jan 30, 5:50 AM)46% (Feb 11, 2:20 PM)29.18 "Hg (Feb 13, 3:50 PM)
Average41 °F81%29.92 "Hg
* Reported Jan 30 3:20 AM — Feb 14 3:20 AM, Zürich, Weather by CustomWeather, © 2016

Note: Actual official high and low records may vary slightly from our data, if they occured in-between our weather recording intervals... More about our weather records

Advertising

Zürich Weather History for the Previous 24 Hours

 ConditionsComfort  
Time TempWeatherWind HumidityBarometerVisibility
3:20 AM
Sun, Feb 14
45 °FPartly cloudy.7 mph71%29.21 "HgN/A
2:50 AM45 °FPassing clouds.10 mph76%29.24 "HgN/A
2:20 AM45 °FPassing clouds.14 mph76%29.21 "HgN/A
1:50 AM45 °FSprinkles. Passing clouds.12 mph76%29.24 "HgN/A
12:50 AM45 °FSprinkles. Partly cloudy.17 mph81%29.24 "HgN/A
12:20 AM46 °FPartly cloudy.13 mph76%29.21 "HgN/A
11:50 PM
Sat, Feb 13
45 °FPassing clouds.13 mph81%29.21 "HgN/A
11:20 PM45 °FPartly cloudy.14 mph81%29.21 "HgN/A
10:50 PM45 °FSprinkles. Partly cloudy.15 mph81%29.21 "HgN/A
10:20 PM45 °FSprinkles. Partly cloudy.13 mph81%29.21 "HgN/A
9:50 PM45 °FSprinkles. Partly cloudy.13 mph76%29.21 "HgN/A
9:20 PM45 °FSprinkles. Partly cloudy.10 mph76%29.21 "HgN/A
8:50 PM45 °FSprinkles. Partly cloudy.10 mph76%29.21 "HgN/A
8:20 PM45 °FSprinkles. Passing clouds.12 mph71%29.21 "HgN/A
7:50 PM43 °FSprinkles. Partly cloudy.10 mph81%29.21 "HgN/A
7:20 PM43 °FSprinkles. Partly cloudy.12 mph81%29.21 "HgN/A
6:50 PM41 °FPartly cloudy.7 mph87%29.21 "HgN/A
6:20 PM41 °FPartly cloudy.8 mph87%29.24 "HgN/A
5:50 PM41 °FScattered showers. Partly cloudy.9 mph87%29.24 "HgN/A
5:20 PM41 °FRain showers. Broken clouds.15 mph87%29.24 "Hg3 mi
4:50 PM43 °FRain showers. Broken clouds.8 mph81%29.21 "Hg4 mi
4:20 PM45 °FSprinkles. Broken clouds.8 mph71%29.21 "HgN/A
3:50 PM46 °FScattered showers. Scattered clouds.2 mph66%29.18 "HgN/A
3:20 PM46 °FScattered showers. Scattered clouds.3 mph66%29.21 "HgN/A
2:50 PM46 °FScattered clouds.3 mph66%29.21 "HgN/A
2:20 PM45 °FScattered clouds.7 mph71%29.24 "HgN/A
1:50 PM45 °FPartly sunny.9 mph76%29.24 "HgN/A
1:20 PM43 °FLight rain. Partly sunny.8 mph81%29.27 "HgN/A
12:50 PM45 °FLight rain. Broken clouds.8 mph71%29.27 "HgN/A
12:20 PM43 °FLight rain. Overcast.7 mph76%29.30 "HgN/A
11:50 AM43 °FPartly sunny.12 mph76%29.33 "HgN/A
11:20 AM43 °FBroken clouds.8 mph76%29.33 "HgN/A
10:50 AM43 °FPartly sunny.8 mph81%29.33 "HgN/A
10:20 AM43 °FPartly sunny.10 mph76%29.33 "HgN/A
9:50 AM43 °FPartly sunny.8 mph76%29.36 "HgN/A
9:20 AM39 °FScattered clouds.7 mph87%29.36 "HgN/A
8:50 AM39 °FBroken clouds.8 mph87%29.36 "HgN/A
8:20 AM39 °FBroken clouds.10 mph87%29.36 "HgN/A
7:50 AM39 °FBroken clouds.9 mph87%29.39 "HgN/A
7:20 AM39 °FLight rain. Mostly cloudy.14 mph87%29.39 "HgN/A
6:50 AM39 °FLight rain. Passing clouds.12 mph87%29.39 "HgN/A
6:20 AM39 °FLight rain. Partly cloudy.12 mph87%29.39 "Hg6 mi
5:50 AM39 °FLight rain. Partly cloudy.12 mph87%29.39 "Hg6 mi
5:20 AM39 °FLight rain. Partly cloudy.15 mph87%29.39 "HgN/A
Weather by CustomWeather, © 2016

See weather overviewHow to use our weather pages